This is the latest recevied weather packets stored in our database for station/object N5PA. If no packets are shown the sender has not sent any weather packets the latest 10 day(s).
| Time | Temp. | Humidity | Pressure | Rain* | Wind** | Luminosity | Snow |
|---|---|---|---|---|---|---|---|
| 1777523406 | 18.33° C | 37% | 1012.6 hPa | 0.51 mm | - | 1013 W/m² | - |
| 1777523107 | 18.33° C | 38% | 1012.7 hPa | 0.51 mm | - | 1011 W/m² | - |
| 1777522806 | 18.33° C | 38% | 1012.4 hPa | 0.51 mm | - | 1013 W/m² | - |
| 1777522507 | 18.33° C | 38% | 1012.6 hPa | 0.51 mm | - | 1013 W/m² | - |
| 1777522206 | 18.33° C | 38% | 1012.8 hPa | 0.51 mm | - | 1011 W/m² | - |
| 1777521907 | 18.33° C | 38% | 1012.9 hPa | 0.51 mm | - | 1013 W/m² | - |
| 1777521607 | 18.33° C | 38% | 1013 hPa | 0.51 mm | - | 1004 W/m² | - |
| 1777521306 | 18.33° C | 38% | 1013 hPa | 0.51 mm | - | 1011 W/m² | - |
| 1777521006 | 18.33° C | 38% | 1013.2 hPa | 0.51 mm | - | 1014 W/m² | - |
| 1777520706 | 18.33° C | 38% | 1013.2 hPa | 0.51 mm | - | 1013 W/m² | - |
| 1777520406 | 18.33° C | 38% | 1013.3 hPa | 0.51 mm | - | 1013 W/m² | - |
| 1777520107 | 18.33° C | 38% | 1013.5 hPa | 0.51 mm | - | 1013 W/m² | - |
| 1777519806 | 18.33° C | 38% | 1013.8 hPa | 0.25 mm | - | 1013 W/m² | - |
| 1777519506 | 18.33° C | 38% | 1014.5 hPa | 0.25 mm | - | 1014 W/m² | - |
| 1777519206 | 18.33° C | 38% | 1014.6 hPa | 0.25 mm | - | 1013 W/m² | - |
| 1777518906 | 18.33° C | 38% | 1014.7 hPa | 0 mm | - | 1013 W/m² | - |
| 1777518606 | 18.33° C | 38% | 1014.7 hPa | 0 mm | - | 1014 W/m² | - |
| 1777518306 | 18.33° C | 39% | 1014.6 hPa | 0 mm | - | 1011 W/m² | - |
| 1777518006 | 18.33° C | 39% | 1014.2 hPa | 0 mm | - | 1014 W/m² | - |
| 1777517707 | 18.33° C | 39% | 1013.8 hPa | 0 mm | - | 1000 W/m² | - |
| 1777517406 | 18.33° C | 39% | 1013.6 hPa | 0 mm | - | 1004 W/m² | - |
| 1777517105 | 18.33° C | 39% | 1013.6 hPa | 0 mm | - | 1004 W/m² | - |
| 1777516806 | 18.33° C | 39% | 1013.5 hPa | 0 mm | - | 998 W/m² | - |
| 1777516506 | 18.33° C | 39% | 1013.4 hPa | 0 mm | - | 1004 W/m² | - |
| 1777516205 | 18.33° C | 39% | 1013.3 hPa | 0 mm | - | 1011 W/m² | - |
* Rain latest hour (hover to see other rain measurements)
** Current wind speed in m/s (hover to see current wind gust speed)